Find Starlink 4536

NORAD ID: 53783 Int'l Des: 2022-111 Owner: SPXS Country: US Constellation: starlink operational
LEOCIRCULAR

实时位置

正在加载3D地球...

关于 Starlink 4536

正在加载描述...

即将过境

Passes for default location (London). Set your location on the main map for personalized predictions.

高度历史

Loading altitude history...

两行轨道根数

1 53783U 22111L 26121.45879655 .00000408 00000-0 43744-4 0 9992
2 53783 53.2201 37.1491 0001606 93.9529 266.1647 15.08842405201660
Epoch: May 1, 2026 • Age: 12 hours

当前状态

高度 555.6 km
速度 7.58 km/s
星下点 -44.21°S, 53.3°E
发射日期 Sep 11, 2022
运行时间 3.6 years
类型 internet

技术详情

分类 Payload
质量 305.00 kg
干质量 290.00 kg
总质量 305.00 kg
长度 0.20 m
直径 2.80 m
跨度 9.00 m
形状 Box + pan
制造商 SPXS
平台类型 Starlink
阶段状态 In Orbit
所有者/国家 SPXS/US

Most Searched